GW4386 Weather Reports


Display with metric or nautical units.
time (UTC)temp
F
wind
direction
speed
MPH
gust
MPH
rain 1hr
in
rain 24hr
in
rain mn
in
humidity
%
barometer
mb
20260901004556 59 186 2.0 4.0 0.00 0.00 0.00 87 1013.6
20260901004057 59 158 1.0 4.0 0.00 0.00 0.00 87 1013.6
20260901003600 59 175 1.0 4.0 0.00 0.00 0.00 87 1013.7
20260901003057 59 220 1.0 5.0 0.00 0.00 0.00 87 1013.6
20260901002559 59 181 1.0 5.0 0.00 0.00 0.00 87 1013.6
20260901002058 59 193 2.0 4.0 0.00 0.00 0.00 87 1013.6
20260901001557 59 207 2.0 4.0 0.00 0.00 0.00 87 1013.6
20260901001057 59 216 2.0 5.0 0.00 0.00 0.00 87 1013.5
20260901000556 59 190 2.0 6.0 0.00 0.00 0.00 87 1013.5
20260901000056 58 207 2.0 4.0 0.00 0.00 0.00 87 1013.3
20260831235557 58 211 2.0 5.0 0.00 0.00 0.00 87 1013.3
20260831235058 59 207 2.0 5.0 0.00 0.00 0.00 87 1013.2
20260831234601 58 200 1.0 3.0 0.00 0.00 0.00 87 1013.3
20260831234057 58 219 0.0 1.0 0.00 0.00 0.00 87 1013.1
20260831233558 59 142 0.0 4.0 0.00 0.00 0.00 88 1013.2
20260831233100 59 155 2.0 4.0 0.00 0.00 0.00 87 1013.3
20260831232556 59 202 0.0 4.0 0.00 0.00 0.00 88 1013.4
20260831232101 59 194 2.0 4.0 0.00 0.00 0.00 88 1013.3
20260831231601 58 211 2.0 4.0 0.00 0.00 0.00 88 1013.3
20260831231057 58 202 1.0 3.0 0.00 0.00 0.00 88 1013.3
20260831230601 58 192 0.0 3.0 0.00 0.00 0.00 88 1013.3
20260831225601 59 144 0.0 1.0 0.00 0.00 0.00 88 1013.4
20260831225059 59 101 0.0 2.0 0.00 0.00 0.00 88 1013.3
20260831224600 59 116 0.0 1.0 0.00 0.00 0.00 88 1013.4
20260831224101 59 132 0.0 3.0 0.00 0.00 0.00 88 1013.5
20260831223601 60 194 0.0 3.0 0.00 0.00 0.00 88 1013.5
20260831223101 60 219 0.0 2.0 0.00 0.00 0.00 88 1013.5
20260831222600 60 218 0.0 0.0 0.00 0.00 0.00 88 1013.4
20260831222102 60 207 0.0 0.0 0.00 0.00 0.00 88 1013.4
20260831221608 60 215 0.0 1.0 0.00 0.00 0.00 88 1013.4
20260831221059 60 184 0.0 3.0 0.00 0.00 0.00 88 1013.4
20260831220559 60 207 0.0 3.0 0.00 0.00 0.00 88 1013.5
20260831220109 60 209 1.0 3.0 0.00 0.00 0.00 88 1013.6
20260831220006 60 200 1.0 3.0 0.00 0.00 0.00 88 1013.7
20260831215559 60 202 0.0 3.0 0.00 0.00 0.00 88 1013.7
20260831215100 60 202 1.0 3.0 0.00 0.00 0.00 88 1013.6
20260831214610 60 209 0.0 2.0 0.00 0.00 0.00 88 1013.6
20260831214100 60 180 0.0 3.0 0.00 0.00 0.00 88 1013.6
20260831213559 60 200 0.0 3.0 0.00 0.00 0.00 88 1013.6
20260831213102 60 176 0.0 2.0 0.00 0.00 0.00 88 1013.6
20260831212600 60 207 0.0 1.0 0.00 0.00 0.00 88 1013.6
20260831212103 60 186 0.0 2.0 0.00 0.00 0.00 88 1013.7
20260831211600 60 177 0.0 2.0 0.00 0.00 0.00 88 1013.7
20260831211100 59 207 0.0 2.0 0.00 0.00 0.00 88 1013.7
20260831210558 59 197 0.0 0.0 0.00 0.00 0.00 88 1013.7
20260831210100 59 197 0.0 1.0 0.00 0.00 0.00 88 1013.7
20260831210001 59 197 0.0 1.0 0.00 0.00 0.00 88 1013.7
20260831205602 60 174 0.0 1.0 0.00 0.00 0.00 88 1013.7
20260831205059 60 190 0.0 1.0 0.00 0.00 0.00 88 1013.7
20260831205001 59 176 0.0 1.0 0.00 0.00 0.00 88 1013.7
20260831204600 59 180 0.0 0.0 0.00 0.00 0.00 88 1013.7
20260831204102 59 190 0.0 1.0 0.00 0.00 0.00 88 1013.7
20260831203603 59 190 0.0 1.0 0.00 0.00 0.00 88 1013.8
20260831203106 60 206 0.0 0.0 0.00 0.00 0.00 88 1013.7
20260831202559 60 209 0.0 0.0 0.00 0.00 0.00 88 1013.8
20260831202059 60 154 0.0 0.0 0.00 0.00 0.00 88 1013.8
20260831201600 60 80 0.0 0.0 0.00 0.00 0.00 88 1013.9
20260831201103 60 186 0.0 0.0 0.00 0.00 0.00 88 1013.9
20260831200600 60 209 0.0 0.0 0.00 0.00 0.00 88 1013.9
20260831200109 60 209 0.0 1.0 0.00 0.00 0.00 88 1013.9
20260831195601 60 209 0.0 1.0 0.00 0.00 0.00 88 1013.9
20260831195059 60 161 0.0 0.0 0.00 0.00 0.00 88 1013.9
20260831194613 60 181 0.0 1.0 0.00 0.00 0.00 88 1013.9
20260831194058 60 205 0.0 1.0 0.00 0.00 0.00 88 1013.9
20260831193558 60 175 0.0 0.0 0.00 0.00 0.00 88 1013.9
20260831193100 60 209 0.0 0.0 0.00 0.00 0.00 88 1013.8
20260831192558 60 209 0.0 1.0 0.00 0.00 0.00 88 1013.7
20260831192058 60 225 0.0 1.0 0.00 0.00 0.00 88 1013.7
20260831191558 60 195 0.0 1.0 0.00 0.00 0.00 88 1013.6
20260831191100 60 216 0.0 1.0 0.00 0.00 0.00 88 1013.6
20260831190600 61 193 0.0 1.0 0.00 0.00 0.00 87 1013.6
20260831190109 61 207 0.0 1.0 0.00 0.00 0.00 87 1013.7
20260831185558 61 204 0.0 0.0 0.00 0.00 0.00 87 1013.7
20260831185057 61 159 0.0 0.0 0.00 0.00 0.00 87 1013.7
20260831184558 62 22 0.0 0.0 0.00 0.00 0.00 86 1013.9
20260831184058 62 22 0.0 0.0 0.00 0.00 0.00 86 1013.8
20260831183558 62 290 0.0 0.0 0.00 0.00 0.00 86 1013.9
20260831183103 62 290 0.0 0.0 0.00 0.00 0.00 86 1013.8
20260831182559 63 223 0.0 1.0 0.00 0.00 0.00 85 1013.8
20260831182058 63 238 0.0 1.0 0.00 0.00 0.00 85 1013.8
20260831181603 63 192 0.0 1.0 0.00 0.00 0.00 84 1013.6
20260831181058 64 213 0.0 0.0 0.00 0.00 0.00 84 1013.5
20260831181001 64 192 0.0 0.0 0.00 0.00 0.00 84 1013.5
20260831180558 64 280 0.0 0.0 0.00 0.00 0.00 83 1013.5
20260831180101 65 240 0.0 1.0 0.00 0.00 0.00 82 1013.4
20260831175559 65 219 0.0 2.0 0.00 0.00 0.00 81 1013.4
20260831175059 66 193 0.0 3.0 0.00 0.00 0.00 80 1013.3
20260831174559 67 212 0.0 3.0 0.00 0.00 0.00 78 1013.3
20260831174100 67 244 1.0 3.0 0.00 0.00 0.00 77 1013.3
20260831173558 68 202 0.0 6.0 0.00 0.00 0.00 77 1013.2
20260831173100 68 225 1.0 6.0 0.00 0.00 0.00 75 1013.2
20260831172602 68 191 1.0 4.0 0.00 0.00 0.00 75 1013.2
20260831172059 69 216 2.0 5.0 0.00 0.00 0.00 74 1013.2
20260831171558 69 196 3.0 6.0 0.00 0.00 0.00 74 1013.2
20260831171059 69 209 3.0 6.0 0.00 0.00 0.00 74 1013.1
20260831170559 69 223 3.0 6.0 0.00 0.00 0.00 74 1013.1
20260831170058 70 212 2.0 4.0 0.00 0.00 0.00 73 1013.0
20260831165600 70 234 1.0 7.0 0.00 0.00 0.00 71 1013.0
20260831165058 71 205 2.0 8.0 0.00 0.00 0.00 69 1012.9
20260831164559 72 215 3.0 7.0 0.00 0.00 0.00 69 1012.9
20260831164059 72 169 2.0 9.0 0.00 0.00 0.00 68 1012.8
20260831163558 72 155 4.0 9.0 0.00 0.00 0.00 67 1012.8
20260831163058 72 191 3.0 7.0 0.00 0.00 0.00 69 1012.8
20260831162559 72 132 1.0 7.0 0.00 0.00 0.00 70 1012.9
20260831162102 72 165 1.0 5.0 0.00 0.00 0.00 72 1012.9
20260831161559 72 191 1.0 4.0 0.00 0.00 0.00 72 1012.9
20260831161058 72 136 1.0 4.0 0.00 0.00 0.00 72 1013.0
20260831160601 72 212 1.0 5.0 0.00 0.00 0.00 72 1013.1
20260831160107 72 225 3.0 5.0 0.00 0.00 0.00 71 1013.1
20260831155600 72 207 1.0 5.0 0.00 0.00 0.00 72 1013.1
20260831155102 72 227 2.0 5.0 0.00 0.00 0.00 72 1013.2
20260831154559 72 221 2.0 7.0 0.00 0.00 0.00 71 1013.2
20260831154101 72 235 2.0 7.0 0.00 0.00 0.00 72 1013.2
20260831153600 73 233 2.0 9.0 0.00 0.00 0.00 71 1013.2
20260831153059 73 249 3.0 9.0 0.00 0.00 0.00 70 1013.2
20260831152559 73 213 4.0 8.0 0.00 0.00 0.00 70 1013.2
20260831152059 73 279 2.0 6.0 0.00 0.00 0.00 71 1013.2
20260831151600 73 215 1.0 7.0 0.00 0.00 0.00 71 1013.3
20260831151059 73 248 3.0 7.0 0.00 0.00 0.00 70 1013.2
20260831150600 74 226 3.0 7.0 0.00 0.00 0.00 70 1013.2
20260831150110 74 221 1.0 5.0 0.00 0.00 0.00 70 1013.1
20260831145603 74 221 3.0 5.0 0.00 0.00 0.00 69 1013.1
20260831145101 74 231 1.0 5.0 0.00 0.00 0.00 69 1013.1
20260831145004 74 225 1.0 5.0 0.00 0.00 0.00 68 1013.1
20260831144604 74 246 1.0 6.0 0.00 0.00 0.00 68 1013.1
20260831144058 74 179 3.0 6.0 0.00 0.00 0.00 69 1013.2
20260831143559 74 233 1.0 6.0 0.00 0.00 0.00 70 1013.2
20260831143102 74 276 4.0 6.0 0.00 0.00 0.00 68 1013.1
20260831142558 75 173 3.0 5.0 0.00 0.00 0.00 70 1013.1
20260831142058 74 229 1.0 5.0 0.00 0.00 0.00 73 1013.2
20260831141559 74 211 2.0 4.0 0.00 0.00 0.00 73 1013.3
20260831141104 74 225 1.0 4.0 0.00 0.00 0.00 73 1013.3
20260831140558 74 207 1.0 4.0 0.00 0.00 0.00 74 1013.3
20260831140058 73 227 1.0 3.0 0.00 0.00 0.00 74 1013.3
20260831135558 73 237 0.0 4.0 0.00 0.00 0.00 76 1013.3
20260831135058 73 242 0.0 4.0 0.00 0.00 0.00 75 1013.4
20260831134604 73 277 1.0 4.0 0.00 0.00 0.00 76 1013.4
20260831134057 73 290 0.0 3.0 0.00 0.00 0.00 77 1013.5
20260831133558 73 218 1.0 3.0 0.00 0.00 0.00 74 1013.4
20260831133103 74 221 1.0 3.0 0.00 0.00 0.00 74 1013.4
20260831132558 74 225 0.0 2.0 0.00 0.00 0.00 72 1013.4
20260831132058 73 227 0.0 3.0 0.00 0.00 0.00 71 1013.5
20260831131603 73 253 0.0 3.0 0.00 0.00 0.00 71 1013.5
20260831131059 73 232 0.0 3.0 0.00 0.00 0.00 70 1013.6
20260831130559 74 211 0.0 3.0 0.00 0.00 0.00 69 1013.6
20260831130059 74 216 1.0 5.0 0.00 0.00 0.00 68 1013.6
20260831125558 74 207 2.0 5.0 0.00 0.00 0.00 66 1013.6
20260831125058 74 184 1.0 6.0 0.00 0.00 0.00 66 1013.5
20260831124559 74 198 1.0 6.0 0.00 0.00 0.00 65 1013.5
20260831124058 74 215 1.0 7.0 0.00 0.00 0.00 65 1013.5
20260831123559 74 203 2.0 6.0 0.00 0.00 0.00 65 1013.6
20260831123058 75 144 2.0 5.0 0.00 0.00 0.00 67 1013.7
20260831122603 75 117 1.0 7.0 0.00 0.00 0.00 66 1013.7
20260831122059 75 161 1.0 7.0 0.00 0.00 0.00 65 1013.7
20260831121559 75 157 3.0 6.0 0.00 0.00 0.00 64 1013.7
20260831121101 76 175 1.0 6.0 0.00 0.00 0.00 63 1013.7
20260831120559 75 161 3.0 8.0 0.00 0.00 0.00 63 1013.7
20260831120105 75 207 3.0 8.0 0.00 0.00 0.00 64 1013.7
20260831115558 75 177 1.0 7.0 0.00 0.00 0.00 63 1013.7
20260831115059 76 196 3.0 7.0 0.00 0.00 0.00 62 1013.7
20260831114558 76 209 1.0 6.0 0.00 0.00 0.00 61 1013.8
20260831114058 76 157 3.0 6.0 0.00 0.00 0.00 62 1013.9
20260831113559 75 194 3.0 6.0 0.00 0.00 0.00 61 1013.9
20260831113106 76 195 3.0 6.0 0.00 0.00 0.00 61 1013.8
20260831112603 76 186 2.0 8.0 0.00 0.00 0.00 60 1013.9
20260831112058 76 189 4.0 8.0 0.00 0.00 0.00 59 1013.9
20260831111612 76 192 3.0 5.0 0.00 0.00 0.00 62 1013.9
20260831111058 76 198 0.0 4.0 0.00 0.00 0.00 62 1013.8
20260831110600 75 136 1.0 5.0 0.00 0.00 0.00 65 1013.8
20260831110103 75 171 2.0 5.0 0.00 0.00 0.00 65 1013.9
20260831105558 74 197 2.0 5.0 0.00 0.00 0.00 64 1014.0
20260831105103 75 189 2.0 5.0 0.00 0.00 0.00 64 1013.9
20260831104602 75 197 1.0 5.0 0.00 0.00 0.00 62 1013.9
20260831104101 75 220 2.0 5.0 0.00 0.00 0.00 62 1013.9
20260831103558 76 216 1.0 5.0 0.00 0.00 0.00 65 1013.8
20260831103105 75 214 0.0 4.0 0.00 0.00 0.00 64 1014.0
20260831102558 75 275 1.0 4.0 0.00 0.00 0.00 66 1014.2
20260831102059 75 191 1.0 6.0 0.00 0.00 0.00 64 1014.1
20260831101559 74 252 2.0 7.0 0.00 0.00 0.00 67 1014.1
20260831101058 74 229 3.0 7.0 0.00 0.00 0.00 66 1014.2
20260831100601 74 242 2.0 6.0 0.00 0.00 0.00 65 1014.2
20260831100108 74 229 0.0 6.0 0.00 0.00 0.00 64 1014.2
20260831100002 74 207 1.0 6.0 0.00 0.00 0.00 64 1014.2
20260831095602 74 228 3.0 7.0 0.00 0.00 0.00 64 1014.2
20260831095059 74 209 2.0 6.0 0.00 0.00 0.00 65 1014.2
20260831095002 74 225 2.0 6.0 0.00 0.00 0.00 66 1014.2
20260831094604 74 214 2.0 7.0 0.00 0.00 0.00 66 1014.1
20260831094101 74 202 2.0 6.0 0.00 0.00 0.00 64 1014.1
20260831093558 74 205 2.0 6.0 0.00 0.00 0.00 65 1014.2
20260831093058 74 186 3.0 6.0 0.00 0.00 0.00 65 1014.1
20260831092558 74 275 4.0 6.0 0.00 0.00 0.00 65 1014.1
20260831092105 74 218 3.0 6.0 0.00 0.00 0.00 65 1014.2
20260831091603 75 142 1.0 5.0 0.00 0.00 0.00 64 1014.1
20260831091059 75 163 2.0 7.0 0.00 0.00 0.00 64 1014.1
20260831090559 74 103 1.0 7.0 0.00 0.00 0.00 67 1014.1
20260831090058 75 207 3.0 6.0 0.00 0.00 0.00 66 1014.1
20260831085601 76 103 0.0 4.0 0.00 0.00 0.00 68 1014.0
20260831085059 75 94 1.0 4.0 0.00 0.00 0.00 69 1014.2
20260831084603 73 179 1.0 5.0 0.00 0.00 0.00 71 1014.3
20260831084058 72 221 1.0 5.0 0.00 0.00 0.00 73 1014.4
20260831083559 72 166 1.0 5.0 0.00 0.00 0.00 71 1014.4
20260831083101 72 205 2.0 6.0 0.00 0.00 0.00 72 1014.4
20260831082558 72 160 3.0 6.0 0.00 0.00 0.00 72 1014.3
20260831082059 71 240 2.0 5.0 0.00 0.00 0.00 74 1014.4
20260831081604 71 172 2.0 6.0 0.00 0.00 0.00 75 1014.4
20260831081058 71 190 1.0 5.0 0.00 0.00 0.00 75 1014.4
20260831080557 71 217 2.0 5.0 0.00 0.00 0.00 74 1014.4
20260831080136 71 225 2.0 5.0 0.00 0.00 0.00 74 1014.4
20260831080000 71 237 1.0 5.0 0.00 0.00 0.00 75 1014.4
20260831075557 71 213 1.0 5.0 0.00 0.00 0.00 74 1014.4
20260831075101 71 138 0.0 5.0 0.00 0.00 0.00 75 1014.4
20260831074559 71 207 2.0 5.0 0.00 0.00 0.00 74 1014.4
20260831074059 70 165 0.0 4.0 0.00 0.00 0.00 75 1014.5
20260831073558 70 135 1.0 5.0 0.00 0.00 0.00 76 1014.6
20260831073115 70 144 2.0 5.0 0.00 0.00 0.00 78 1014.5
20260831072558 69 218 0.0 4.0 0.00 0.00 0.00 78 1014.5
20260831072059 68 211 1.0 4.0 0.00 0.00 0.00 80 1014.5
20260831071559 68 228 0.0 4.0 0.00 0.00 0.00 81 1014.4
20260831071101 67 297 1.0 4.0 0.00 0.00 0.00 83 1014.4
20260831070557 66 160 0.0 4.0 0.00 0.00 0.00 83 1014.4
20260831070058 66 186 0.0 2.0 0.00 0.00 0.00 84 1014.3
20260831065559 65 78 0.0 1.0 0.00 0.00 0.00 85 1014.4
20260831065058 65 152 0.0 3.0 0.00 0.00 0.00 86 1014.5
20260831064557 64 161 1.0 3.0 0.00 0.00 0.00 87 1014.6
20260831064059 63 139 1.0 3.0 0.00 0.00 0.00 88 1014.7
20260831063603 63 138 0.0 3.0 0.00 0.00 0.00 88 1014.6
20260831063057 63 156 0.0 3.0 0.00 0.00 0.00 88 1014.7
20260831062558 63 196 0.0 3.0 0.00 0.00 0.00 88 1014.7
20260831062058 62 195 1.0 4.0 0.00 0.00 0.00 88 1014.6
20260831061558 62 180 0.0 4.0 0.00 0.00 0.00 88 1014.5
20260831061058 61 169 2.0 4.0 0.00 0.00 0.00 87 1014.6
20260831060559 61 153 1.0 4.0 0.00 0.00 0.00 86 1014.7
20260831060100 60 199 3.0 5.0 0.00 0.00 0.00 85 1014.6
20260831055558 60 207 2.0 5.0 0.00 0.00 0.00 84 1014.5
20260831055057 60 184 1.0 4.0 0.00 0.00 0.00 83 1014.6
20260831054558 59 196 1.0 4.0 0.00 0.00 0.00 83 1014.6
20260831054058 58 201 0.0 3.0 0.00 0.00 0.00 83 1014.6
20260831053558 58 238 0.0 3.0 0.00 0.00 0.00 84 1014.6
20260831053059 57 211 1.0 3.0 0.00 0.00 0.00 84 1014.6
20260831052559 57 212 0.0 0.0 0.00 0.00 0.00 84 1014.6
20260831052102 56 44 0.0 0.0 0.00 0.00 0.00 84 1014.6
20260831051558 56 44 0.0 0.0 0.00 0.00 0.00 84 1014.6
20260831051058 56 44 0.0 0.0 0.00 0.00 0.00 85 1014.6
20260831050558 56 52 0.0 0.0 0.00 0.00 0.00 85 1014.6
20260831050101 56 52 0.0 0.0 0.00 0.00 0.00 85 1014.6
20260831045601 56 52 0.0 0.0 0.00 0.00 0.00 85 1014.6
20260831045056 55 52 0.0 0.0 0.00 0.00 0.00 85 1014.6
20260831044603 55 95 0.0 0.0 0.00 0.00 0.00 85 1014.6
20260831044057 55 114 0.0 0.0 0.00 0.00 0.00 85 1014.6
20260831043558 56 126 0.0 0.0 0.00 0.00 0.00 85 1014.7
20260831043057 55 126 0.0 0.0 0.00 0.00 0.00 85 1014.7
20260831042557 55 126 0.0 1.0 0.00 0.00 0.00 85 1014.6
20260831042058 56 126 0.0 1.0 0.00 0.00 0.00 85 1014.7
20260831041608 56 80 0.0 1.0 0.00 0.00 0.00 85 1014.7
20260831041105 56 129 0.0 2.0 0.00 0.00 0.00 85 1014.7
20260831040559 56 214 0.0 3.0 0.00 0.00 0.00 85 1014.7
20260831040058 56 200 0.0 4.0 0.00 0.00 0.00 85 1014.7
20260831035602 55 195 2.0 4.0 0.00 0.00 0.00 86 1014.6
20260831035058 55 194 2.0 3.0 0.00 0.00 0.00 86 1014.7
20260831034604 55 194 1.0 3.0 0.00 0.00 0.00 86 1014.7
20260831034058 55 139 0.0 1.0 0.00 0.00 0.00 86 1014.6
20260831033602 55 144 0.0 1.0 0.00 0.00 0.00 86 1014.6
20260831033058 55 176 0.0 1.0 0.00 0.00 0.00 86 1014.6
20260831032559 55 184 0.0 3.0 0.00 0.00 0.00 86 1014.5
20260831032057 56 181 0.0 3.0 0.00 0.00 0.00 86 1014.5
20260831031558 56 156 0.0 1.0 0.00 0.00 0.00 86 1014.5
20260831031058 56 123 0.0 1.0 0.00 0.00 0.00 86 1014.6
20260831030600 56 204 0.0 2.0 0.00 0.00 0.00 86 1014.7
20260831025558 56 165 0.0 1.0 0.00 0.00 0.00 86 1014.7
20260831025058 56 219 0.0 1.0 0.00 0.00 0.00 86 1014.7
20260831024606 56 213 0.0 1.0 0.00 0.00 0.00 86 1014.7
20260831024058 56 160 0.0 0.0 0.00 0.00 0.00 86 1014.7
20260831023558 56 124 0.0 0.0 0.00 0.00 0.00 86 1014.7
20260831023058 56 124 0.0 0.0 0.00 0.00 0.00 86 1014.7
20260831022603 56 124 0.0 1.0 0.00 0.00 0.00 86 1014.7
20260831022058 57 144 0.0 2.0 0.00 0.00 0.00 86 1014.7
20260831021600 56 165 0.0 2.0 0.00 0.00 0.00 86 1014.7
20260831021101 57 360 1.0 2.0 0.00 0.00 0.00 86 1014.7
20260831020558 57 198 0.0 1.0 0.00 0.00 0.00 86 1014.7
20260831020103 57 220 0.0 1.0 0.00 0.00 0.00 86 1014.6
20260831015601 57 109 0.0 0.0 0.00 0.00 0.00 86 1014.7
20260831015058 57 109 0.0 0.0 0.00 0.00 0.00 86 1014.7
20260831014559 57 147 0.0 0.0 0.00 0.00 0.00 86 1014.7
20260831014058 57 147 0.0 0.0 0.00 0.00 0.00 86 1014.7
20260831013559 57 147 0.0 0.0 0.00 0.00 0.00 87 1014.8
20260831013106 57 147 0.0 0.0 0.00 0.00 0.00 87 1014.7
20260831012558 57 147 0.0 0.0 0.00 0.00 0.00 87 1014.7
20260831012058 57 147 0.0 0.0 0.00 0.00 0.00 87 1014.8
20260831011559 57 147 0.0 0.0 0.00 0.00 0.00 87 1014.8
20260831011057 58 121 0.0 0.0 0.00 0.00 0.00 87 1014.8
20260831010558 57 227 0.0 2.0 0.00 0.00 0.00 87 1014.9
20260831010121 58 215 0.0 2.0 0.00 0.00 0.00 87 1014.9
20260831005557 58 205 0.0 2.0 0.00 0.00 0.00 87 1014.8
20260831005058 58 142 0.0 0.0 0.00 0.00 0.00 87 1014.8